Simultaneous Nadir Overpasses (SNOs) Predictions

Prediction of SNOs between GOES-17 and METOP-C Satellite Orbit:

Table of predicted SNOs for the next 14.0 days since TLE Epoch: 9/23/2023
Index Date Time (GOES-17) GOES-17 Lat,Lon METOP-C Lat,Lon Distance(km) Time Diff (sec)
1 09/24/2023 16:28:22 -0.00,-104.70 -0.06,-104.48 25.08 80
2 09/27/2023 04:23:59 0.01,-104.68 0.12,-104.07 69.33 80
3 09/28/2023 16:42:47 -0.01,-104.70 0.88,-108.62 447.66 80
4 09/29/2023 16:24:47 -0.01,-104.70 -0.27,-103.63 122.45 80
5 10/01/2023 04:43:45 0.01,-104.69 -0.75,-108.23 401.86 80
6 10/02/2023 04:20:24 0.01,-104.69 0.35,-103.22 167.80 80
7 10/03/2023 16:39:12 -0.02,-104.71 0.64,-107.78 349.48 80
8 10/04/2023 16:21:11 -0.02,-104.71 -0.47,-102.78 220.57 80
9 10/06/2023 04:40:09 0.02,-104.70 -0.55,-107.37 303.46 80
